COSMOS 2432 (719)

Last updated on Jan. 18, 2020, 4:38 a.m. UTC

1 32276U 07052B   20017.21438122 -.00000031  00000-0  10000-3 0  9996
2 32276  65.9454  34.0812 0011546 317.7014 228.3102  2.13103664 95168
UTC
Height (km)
Latitude
Longitude
Inclination
Orbital Period
UTC large
Height (km)
Speed (km/s)
/
Latitude / Longitude
Inclination (degrees)
Orbital Period (minutes)
Azimuth
Elevation
Range (km)
Doppler Factor
iOS Compass Heading
iOS Angle

Next 30 passes for location: Hong Kong

Rise time Rise Azimuth (degrees) Set time Set Azimuth (degrees) Duration Max altitude (degrees)

No matching passes for this satellites